This is the latest recevied weather packets stored in our database for station/object IU0KRR-10. If no packets are shown the sender has not sent any weather packets the latest 10 day(s).
| Time | Temp. | Humidity | Pressure | Rain* | Wind** | Luminosity | Snow |
|---|---|---|---|---|---|---|---|
| 1787795264 | 21.67° C | 67% | 877.7 hPa | - | - | - | - |
| 1787794345 | 21.11° C | 62% | 877.8 hPa | - | - | - | - |
| 1787793607 | 21.11° C | 51% | 877.7 hPa | - | - | - | - |
| 1787792506 | 20.56° C | 54% | 877.9 hPa | - | - | - | - |
| 1787791587 | 20.56° C | 65% | 877.8 hPa | - | - | - | - |
| 1787790572 | 20.56° C | 77% | 877.8 hPa | - | - | - | - |
| 1787789745 | 20.56° C | 80% | 877.9 hPa | - | - | - | - |
| 1787788917 | 20.56° C | 78% | 877.9 hPa | - | - | - | - |
| 1787787908 | 20.56° C | 69% | 878 hPa | - | - | - | - |
| 1787785985 | 20.56° C | 59% | 878.3 hPa | - | - | - | - |
| 1787784148 | 20.56° C | 68% | 878.2 hPa | - | - | - | - |
| 1787783412 | 20.56° C | 86% | 878.3 hPa | - | - | - | - |
| 1787782314 | 20.56° C | 82% | 878.2 hPa | - | - | - | - |
| 1787781395 | 20.56° C | 78% | 878 hPa | - | - | - | - |
| 1787780477 | 21.11° C | 82% | 878.3 hPa | - | - | - | - |
| 1787779558 | 21.11° C | 80% | 878 hPa | - | - | - | - |
| 1787778639 | 21.11° C | 75% | 877.7 hPa | - | - | - | - |
| 1787777724 | 21.67° C | 69% | 877.8 hPa | - | - | - | - |
| 1787776805 | 21.67° C | 67% | 877.8 hPa | - | - | - | - |
| 1787775886 | 21.67° C | 70% | 877.7 hPa | - | - | - | - |
| 1787774968 | 21.11° C | 71% | 877.8 hPa | - | - | - | - |
| 1787774049 | 21.67° C | 72% | 877.8 hPa | - | - | - | - |
| 1787773130 | 21.67° C | 70% | 877.9 hPa | - | - | - | - |
| 1787772488 | 21.67° C | 67% | 877.8 hPa | - | - | - | - |
| 1787771478 | 21.67° C | 65% | 877.7 hPa | - | - | - | - |
* Rain since midnight (hover to see other rain measurements)
** Current wind speed in m/s (hover to see current wind gust speed)